RH
3 3 3 4 4 5 7 8 8 12 14 21 88 100 100 100 100 100 100 100 100 86 100 100 100 100 99 100 100 100 98 66 69 60 44 87 97 93 98 100 100 100 100 99 98 94 84 84 90 95 73 76 73 66
3 3 3 4 4 4 5 7 8 10 12 15 31 99 100 100 100 100 100 100 100 100 100 100 100 100 100 100 100 100 100 100 88 95 56 54 78 99 100 100 96 81 87 100 100 100 96 100 100 100 100 99 92 92
4 4 4 3 4 4 4 5 7 8 12 14 17 65 100 100 100 100 100 100 100 100 100 100 100 100 100 100 100 100 100 100 100 97 77 83 76 100 100 100 100 100 100 100 100 97 91 79 77 71 74 80 76 64
4 4 4 4 3 4 5 4 6 8 10 13 14 21 45 90 100 100 100 100 100 100 100 100 100 100 100 100 100 100 100 100 100 94 91 87 81 58 61 91 100 100 100 99 93 96 92 86 95 88 83 81 86 87
4 4 5 5 3 4 4 5 5 6 8 10 14 16 18 30 96 100 100 100 100 100 100 100 100 100 100 100 100 100 100 100 100 100 100 100 100 100 90 94 97 100 100 100 98 98 96 88 83 70 65 52 50 50
5 4 5 5 5 4 4 5 5 5 6 9 12 13 17 19 29 59 100 100 100 100 100 100 100 100 100 100 100 100 100 100 100 100 100 100 100 100 96 75 100 100 100 100 100 100 100 100 100 78 68 67 78 86
6 5 4 5 5 5 4 5 6 6 6 7 10 12 12 14 19 29 62 100 100 100 100 100 100 100 100 100 100 100 100 100 100 100 100 100 100 100 100 100 100 100 100 91 95 98 90 78 80 80 85 84 77 64
6 6 6 5 5 6 5 4 4 6 6 6 8 9 10 13 14 16 21 65 100 100 100 100 100 100 100 100 100 100 100 100 100 100 100 100 100 100 100 97 100 97 98 93 78 89 93 84 79 74 73 66 53 45
7 8 7 5 5 5 6 6 4 6 7 7 7 8 9 11 14 15 15 17 37 85 92 97 100 100 100 100 99 100 100 100 100 100 100 100 100 100 100 100 100 96 95 92 85 76 79 78 68 56 43 43 50 56
7 8 8 7 7 7 6 6 6 5 6 7 8 8 8 10 12 14 15 15 15 20 67 72 92 100 100 100 100 100 98 100 100 100 96 93 100 100 98 98 92 94 79 61 56 52 51 48 51 55 61 62 61 36
8 8 9 9 8 8 7 6 7 8 7 6 7 9 8 8 8 10 12 13 14 16 17 21 37 56 79 98 100 100 100 94 86 95 93 94 86 87 86 84 76 74 71 65 62 60 64 64 47 42 30 21 10 12
8 8 9 10 10 8 8 8 7 8 9 8 7 6 7 9 8 8 9 13 14 18 21 22 21 26 41 42 54 85 91 94 96 96 94 88 86 90 84 76 72 72 72 63 52 44 20 12 14 14 11 10 11 9
8 8 8 9 10 10 10 10 10 8 8 8 7 6 6 6 7 8 8 9 11 13 14 17 18 20 22 22 30 35 42 55 58 57 61 62 61 56 50 52 58 48 38 32 20 16 14 13 11 8 10 9 7 7
8 7 7 8 9 10 11 11 10 10 10 9 8 8 7 7 7 6 7 8 10 11 11 12 14 16 19 21 24 28 35 36 35 30 27 27 27 28 29 27 17 14 13 13 12 12 12 10 9 8 6 6 5 6
8 8 7 6 7 8 8 11 12 12 12 11 10 8 8 8 8 9 9 8 8 8 9 10 10 12 12 13 14 14 13 12 12 12 13 13 13 12 11 10 10 11 11 11 10 8 6 6 6 5 4 4 5 6
8 7 6 7 8 8 9 10 10 10 11 10 10 8 7 8 8 8 8 7 7 8 8 8 8 9 10 11 11 11 12 12 13 12 11 10 10 10 10 8 7 7 7 6 5 5 5 4 4 4 4 5 6 6
8 8 8 9 9 9 9 9 9 8 9 9 9 8 9 9 9 9 9 9 8 7 8 8 9 10 10 9 8 8 9 9 8 7 7 6 6 7 8 8 7 6 5 5 5 4 4 4 4 5 5 6 6 6
7 7 8 8 8 7 7 7 7 7 8 9 9 8 9 9 8 9 12 14 13 12 12 11 11 11 9 9 10 9 8 7 7 7 7 8 8 8 8 7 6 5 5 4 4 5 5 5 5 6 7 7 7 8
8 8 8 8 9 9 8 8 8 8 9 10 10 11 11 10 11 12 15 12 12 12 13 13 12 10 10 10 8 7 7 7 8 8 9 9 9 8 6 6 5 4 5 5 5 5 6 7 8 8 8 8 9 10
9 9 10 10 10 10 9 9 9 10 11 13 14 12 12 12 14 14 12 14 14 13 12 10 8 6 8 6 6 7 8 8 8 8 9 8 6 6 6 5 6 6 6 6 7 7 9 9 8 8 9 10 13 14
11 12 12 11 11 11 10 10 10 11 11 11 10 9 9 9 10 10 10 11 9 8 6 5 7 11 8 7 8 9 9 10 9 8 7 8 7 6 6 7 7 6 7 9 9 8 8 10 9 10 13 14 14 14
12 12 12 11 10 10 10 10 10 10 10 8 8 8 8 8 9 10 10 9 8 7 6 8 11 9 10 10 10 11 9 8 8 7 7 7 7 8 6 6 8 8 8 10 10 10 9 12 14 14 14 14 14 14
10 10 10 10 9 9 8 8 8 8 8 7 8 8 9 9 9 9 8 7 7 8 8 10 10 11 12 12 10 9 8 8 8 8 7 7 7 8 8 9 10 10 11 12 12 13 14 14 14 14 14 14 14 13
11 11 11 10 9 8 8 7 7 6 6 6 7 7 8 8 8 8 7 7 7 8 10 11 13 14 13 11 10 10 10 9 8 8 7 9 10 10 11 12 12 12 14 15 15 15 15 14 14 14 14 13 12 11
13 12 11 11 11 10 9 8 8 8 7 7 7 6 6 7 7 7 7 8 8 10 15 16 14 13 12 11 12 12 9 9 9 9 11 12 13 14 13 15 16 16 16 16 15 15 15 15 14 13 12 11 12 13
14 13 12 12 12 12 11 10 10 10 10 10 10 9 9 8 8 8 7 7 9 12 14 14 12 11 10 12 11 10 10 10 11 13 14 14 15 18 19 19 17 17 16 15 15 16 15 14 13 12 12 13 14 16
14 15 14 13 14 13 13 12 12 12 12 12 12 12 12 12 12 11 10 10 9 11 12 12 12 13 13 12 13 13 14 14 15 14 14 17 20 20 18 18 17 17 16 16 17 15 14 12 12 14 15 17 18 20
16 15 15 14 13 14 13 12 12 13 12 12 12 12 12 12 13 14 14 13 13 13 12 12 12 12 12 12 14 16 17 16 14 16 20 22 20 19 18 18 18 18 18 18 16 15 14 14 15 16 18 20 22 24
18 17 16 16 14 13 13 13 12 13 14 14 14 13 12 10 11 12 13 12 12 12 12 11 11 11 13 15 17 16 15 16 20 25 23 20 20 19 19 19 19 19 18 17 16 15 16 17 19 20 22 25 26 28
18 19 19 19 18 16 14 13 12 12 13 12 14 15 15 12 11 12 12 12 12 13 13 13 14 16 17 17 16 16 19 22 23 22 21 22 20 20 20 20 20 20 18 17 17 18 18 20 21 23 26 28 30 34
20 18 19 19 19 18 15 14 13 13 13 13 13 13 14 15 15 15 14 14 14 15 16 17 17 17 16 16 18 23 24 24 22 22 23 22 20 21 21 21 21 20 19 18 19 20 20 22 25 28 30 33 35 33
18 17 16 18 20 20 19 17 16 15 15 15 15 15 15 15 16 16 16 16 17 18 17 17 17 16 18 22 24 24 24 24 24 24 23 22 22 22 22 22 21 20 20 20 21 22 23 26 29 31 34 36 34 33
16 15 16 16 17 21 22 20 18 18 18 18 18 18 18 18 19 19 19 18 18 17 17 17 18 20 24 24 24 24 23 24 24 23 23 23 22 22 22 22 21 20 20 21 22 24 26 29 30 32 36 38 36 34
Wind_Speed
54 54 59 65 69 75 86 94 98 102 101 109 121 132 129 126 121 116 113 108 104 101 103 100 98 95 95 95 86 88 92 91 94 88 89 93 94 93 93 91 90 96 98 92 97 99 96 95 97 100 102 101 104 104
53 52 55 59 64 72 80 86 93 99 98 100 108 125 134 131 131 130 126 118 115 112 109 108 106 104 104 101 100 96 98 95 98 98 91 96 97 95 96 94 98 98 99 105 106 104 104 104 107 110 114 116 115 116
51 52 52 55 60 67 74 81 88 93 97 98 107 116 126 131 134 130 129 130 127 124 125 115 114 115 112 107 105 102 101 101 100 101 103 101 100 99 100 102 102 102 101 105 104 106 106 105 107 110 113 115 117 121
47 49 50 52 56 62 69 76 83 90 95 96 101 112 114 120 132 132 134 132 129 126 129 118 117 115 113 111 109 104 103 106 106 107 106 105 106 102 107 108 107 108 111 112 116 115 114 116 119 122 121 119 122 126
44 44 47 49 51 55 62 71 77 82 90 94 95 103 112 114 121 130 133 135 132 130 127 123 117 115 116 111 112 110 112 112 111 108 108 110 109 111 111 110 111 117 117 117 117 121 124 123 122 123 127 129 130 133
45 43 44 46 48 51 55 62 71 78 84 89 93 101 98 111 115 116 126 130 137 136 130 130 121 117 118 118 114 114 116 117 114 114 114 116 116 116 114 112 118 123 121 122 124 125 127 130 134 137 136 135 139 141
46 44 43 43 45 47 50 54 63 70 77 82 85 96 102 102 110 114 114 125 132 133 134 134 130 124 120 121 121 119 122 121 120 119 118 118 121 122 120 120 126 126 125 127 129 131 133 133 137 140 142 142 143 146
43 43 43 42 43 44 46 49 54 63 72 76 81 89 94 99 103 108 114 118 124 131 128 127 131 129 128 126 124 126 123 123 125 124 124 125 124 125 125 128 129 129 131 133 135 137 138 138 139 142 144 147 147 147
39 40 44 44 42 41 43 45 49 54 63 71 75 81 87 92 98 103 108 114 119 124 127 127 126 129 131 132 128 128 127 128 126 126 127 128 129 133 136 135 133 133 136 138 138 138 140 143 145 146 146 147 145 145
37 38 42 44 42 40 41 43 46 50 57 63 71 75 77 85 93 102 104 108 112 118 121 124 126 129 127 128 132 134 132 130 129 131 130 131 135 139 138 137 138 141 143 141 141 143 144 143 145 145 144 142 139 115
35 36 38 40 42 41 40 39 41 45 51 57 61 69 74 79 84 94 102 106 106 109 113 115 118 120 123 129 132 134 135 133 134 135 135 137 139 139 140 142 144 145 145 146 146 144 145 141 129 125 117 108 96 96
33 33 34 37 40 40 40 40 40 43 47 50 54 59 63 72 78 80 86 97 99 100 101 103 108 111 114 116 119 125 129 132 132 133 135 137 138 138 141 142 142 142 140 136 130 123 117 112 110 108 100 95 91 89
30 31 31 32 36 38 38 40 41 42 44 47 51 54 58 61 65 68 71 75 80 84 93 102 107 111 110 109 109 109 112 113 113 114 116 116 116 119 119 119 120 119 119 118 118 113 108 103 99 92 87 86 80 76
29 29 29 30 32 34 36 39 41 42 42 43 46 51 53 53 54 56 60 64 68 73 79 83 87 93 98 102 103 105 106 107 111 112 112 113 114 116 117 116 112 107 104 99 94 93 93 94 89 81 75 70 67 66
27 27 28 28 30 31 33 35 38 41 43 43 44 46 49 51 49 50 55 58 60 62 64 69 73 78 82 85 89 91 92 94 93 94 96 94 94 94 94 93 93 93 91 88 85 82 76 71 70 69 65 60 58 56
25 25 24 25 27 28 29 33 37 37 40 42 43 44 44 45 46 47 50 52 53 54 57 58 60 62 66 70 73 76 78 79 81 82 81 80 78 77 76 76 73 72 72 73 72 67 65 63 59 57 53 49 46 44
23 22 21 22 25 26 27 30 33 34 36 37 39 40 40 41 41 44 43 45 45 46 48 49 51 54 58 61 62 64 66 65 64 64 63 62 61 61 61 61 61 63 64 60 58 56 51 49 47 44 40 36 36 34
20 20 20 21 23 24 26 28 29 30 31 32 33 33 34 37 37 38 39 39 40 41 41 43 47 52 52 50 53 52 53 53 54 53 53 54 54 53 54 56 55 54 51 48 44 42 41 37 34 31 32 31 27 24
17 17 17 19 19 21 21 20 22 21 20 20 21 23 25 28 28 29 34 35 35 34 37 41 42 40 37 40 40 39 40 41 42 44 44 44 44 46 46 46 45 42 38 36 35 32 28 27 26 25 24 22 19 17
13 13 14 16 16 17 16 15 16 15 17 20 22 24 26 27 28 30 30 29 32 35 36 34 28 23 32 33 32 35 36 37 38 36 35 37 35 35 38 36 33 31 29 26 24 22 20 20 20 18 16 13 13 15
11 11 11 12 13 14 13 12 13 15 17 20 22 23 25 26 26 27 28 31 31 26 23 20 17 31 28 29 28 27 29 29 29 29 27 23 31 31 28 25 22 21 19 18 18 17 14 14 13 11 10 9 11 11
8 8 8 8 9 9 9 10 12 14 16 18 18 19 20 21 22 23 25 24 21 17 15 14 25 26 25 24 26 25 23 22 23 21 20 22 21 22 20 17 16 15 13 13 12 11 8 7 6 7 8 8 7 6
6 4 3 4 5 6 8 9 11 13 14 14 14 17 19 19 19 19 17 16 15 18 20 23 23 21 22 23 20 18 18 17 16 18 18 14 14 14 13 12 12 10 8 9 8 7 6 5 6 5 5 4 4 4
7 5 3 3 3 4 5 5 8 10 12 14 16 17 17 16 15 14 15 15 14 12 13 14 16 18 19 17 15 13 15 16 14 14 12 8 8 10 10 9 7 6 6 6 6 6 6 6 5 4 4 4 4 6
7 5 2 0 1 2 3 3 3 4 5 8 10 11 12 14 15 16 15 16 14 15 16 19 19 18 15 12 11 14 14 12 11 9 8 8 9 8 7 6 7 8 7 7 7 7 7 7 7 6 6 8 10 11
7 6 5 3 2 2 2 3 4 5 5 4 4 6 7 8 10 12 15 18 19 23 20 19 19 17 15 14 15 12 11 11 10 10 12 10 9 8 8 10 11 9 9 8 8 8 8 8 8 10 12 14 16 18
11 10 8 3 1 2 2 2 3 5 7 8 9 9 8 7 6 7 8 10 16 20 19 17 16 14 14 13 12 12 12 12 14 13 11 11 11 12 13 12 12 11 10 10 10 10 9 11 14 16 18 20 21 21
13 12 12 8 5 4 2 1 1 1 1 3 6 8 9 11 11 10 9 11 16 18 16 15 16 16 16 16 15 14 15 15 15 13 13 13 15 14 13 13 13 13 13 13 12 12 14 16 17 20 22 23 22 21
11 11 12 10 8 6 4 2 2 3 6 7 5 4 6 7 13 14 12 11 11 13 15 16 17 18 18 17 17 17 17 16 15 15 17 17 16 16 15 15 15 14 14 14 15 17 18 19 22 22 23 23 23 22
8 9 10 9 8 5 3 3 3 4 6 9 10 8 5 6 9 11 12 14 14 15 16 17 18 18 18 18 18 18 17 17 17 18 18 17 17 17 16 16 16 15 15 16 18 19 20 21 22 23 24 24 23 22
6 6 8 10 8 6 4 4 5 6 8 9 9 11 11 11 10 10 12 13 14 15 16 17 18 18 18 18 18 18 19 19 19 18 17 17 17 16 16 15 16 16 17 18 19 20 21 22 23 24 24 23 23 23
6 5 5 7 7 6 5 4 5 6 7 8 8 8 9 9 12 12 13 13 14 16 17 18 18 19 18 19 19 20 20 20 19 18 18 17 16 16 16 16 17 18 19 19 20 21 22 23 23 24 23 22 22 21
8 6 3 3 7 7 6 4 5 5 6 7 8 9 9 10 11 12 13 14 14 15 17 17 17 18 19 19 20 20 20 20 19 19 18 17 16 16 16 17 18 19 20 20 21 21 22 23 23 23 22 22 21 20
Wind_Direction
268 262 254 249 242 232 230 229 227 231 234 234 233 234 237 239 242 242 244 243 244 244 243 246 249 253 255 258 255 254 258 260 262 260 263 261 260 262 264 264 262 266 269 267 272 273 274 275 277 279 281 281 283 285
269 262 256 251 245 239 233 229 226 227 231 233 233 233 234 237 240 241 243 242 244 245 245 247 251 253 256 258 258 259 256 260 262 258 262 262 261 264 264 266 265 267 269 271 273 276 277 277 279 279 280 282 285 285
267 264 258 251 247 241 236 229 226 227 229 231 231 232 234 235 238 241 242 241 244 245 246 249 250 252 255 257 257 260 255 258 258 255 257 258 260 262 263 266 265 267 269 268 269 274 275 276 279 280 280 281 283 286
265 262 259 255 249 244 239 236 227 227 226 229 228 228 232 234 235 237 239 243 245 244 246 248 250 250 253 252 252 253 254 253 256 257 256 259 258 261 263 264 265 266 268 269 272 275 277 279 280 282 283 284 284 286
267 262 259 256 251 246 242 238 234 228 228 228 228 230 231 232 233 234 237 240 241 244 244 245 247 247 246 248 249 249 252 253 255 257 258 259 260 260 260 264 266 267 268 270 272 275 276 277 279 282 281 283 286 289
269 264 258 255 252 247 244 242 238 232 228 229 232 231 230 232 233 234 235 239 241 241 244 242 245 245 245 245 248 249 251 253 254 254 258 259 259 261 263 265 268 268 270 272 273 273 275 277 280 283 286 287 289 290
268 266 263 255 251 249 244 241 238 235 235 231 232 233 233 233 232 233 236 237 240 242 242 242 244 245 246 248 246 249 250 253 254 255 257 258 259 262 263 266 266 268 270 272 274 275 276 278 280 282 284 286 288 289
268 266 264 259 252 248 246 241 239 238 235 233 232 234 234 233 233 234 235 237 238 241 244 244 244 245 246 247 249 248 249 252 252 255 257 258 259 261 263 265 268 268 270 272 273 275 277 279 280 282 284 285 286 288
266 263 262 261 257 250 245 242 238 236 236 235 234 233 233 234 233 234 234 236 238 241 242 243 243 245 247 247 248 249 250 251 252 254 256 258 261 262 262 265 267 269 270 272 274 275 277 279 280 282 284 286 289 290
264 260 260 261 260 256 248 242 240 235 235 236 236 236 233 232 234 235 236 237 238 239 242 243 245 247 247 248 250 251 252 253 253 255 257 258 259 261 264 266 267 268 270 272 274 276 278 281 283 286 288 289 289 290
267 263 260 259 258 256 254 247 241 239 239 238 238 239 238 238 237 236 236 239 241 241 242 244 246 248 250 251 252 253 254 256 257 258 260 261 262 264 266 267 269 271 273 275 278 281 282 284 286 286 287 289 290 293
271 266 260 257 257 255 253 251 246 241 239 241 240 240 240 240 240 240 238 238 240 242 245 248 249 250 252 254 254 254 255 257 258 261 263 264 266 267 268 270 272 274 276 278 280 280 283 288 290 289 288 291 292 291
274 268 263 257 254 253 251 249 248 246 242 240 241 242 243 244 245 245 245 243 241 241 242 244 247 250 252 254 255 257 259 260 261 262 263 265 268 269 272 273 275 277 279 281 282 284 286 286 286 286 291 290 289 291
276 271 264 257 252 251 248 247 246 247 246 245 243 243 245 244 245 246 247 246 245 244 245 245 246 248 250 251 253 256 258 260 262 264 265 266 268 270 271 272 274 276 278 281 283 283 282 281 285 288 285 287 290 291
279 270 263 260 254 250 247 245 244 243 243 243 242 243 244 246 241 240 243 243 244 245 247 249 250 251 252 252 252 253 255 257 260 262 263 265 266 267 269 270 272 274 277 279 279 278 281 285 282 284 287 290 290 289
280 274 270 264 259 254 248 243 244 244 244 245 245 245 246 246 246 244 242 243 245 246 247 249 251 252 253 254 255 257 258 260 261 263 265 267 268 270 271 273 276 277 276 275 277 282 282 282 284 285 288 289 288 287
285 280 274 265 258 252 246 242 242 239 240 240 241 242 242 244 245 247 247 246 245 246 247 248 250 251 251 252 254 255 257 260 262 264 266 269 271 272 273 273 273 274 276 281 281 281 283 282 284 287 288 286 283 285
287 281 270 260 256 251 245 239 237 235 235 236 238 241 241 244 243 242 245 244 243 244 245 246 246 246 249 253 256 258 261 262 264 266 267 267 268 269 269 270 272 275 278 279 282 280 280 286 287 285 280 281 286 286
292 286 277 267 258 253 252 247 245 242 236 235 239 243 244 245 245 243 242 246 248 248 247 246 247 251 254 255 257 259 259 259 258 258 259 263 265 267 271 273 275 277 279 279 279 285 285 281 278 276 280 284 285 283
295 289 279 271 261 255 251 239 236 226 220 222 224 226 228 230 231 237 239 242 244 243 245 250 253 253 248 249 249 252 255 255 255 258 260 261 267 269 266 271 274 275 276 279 278 275 274 275 275 276 278 278 273 271
307 301 290 276 265 260 251 239 234 233 230 230 232 231 233 234 235 237 239 240 244 248 249 247 239 243 247 249 252 252 250 250 253 254 258 260 258 265 271 271 271 272 274 275 274 274 268 266 272 273 268 258 253 262
320 314 306 293 275 261 249 236 233 235 232 230 229 233 237 238 236 234 237 243 249 251 253 251 243 242 244 243 241 243 248 251 252 255 255 254 259 263 268 270 269 273 273 266 263 265 263 252 243 239 243 247 248 239
331 329 318 295 284 269 256 237 222 222 226 226 223 225 227 228 229 230 232 231 227 228 233 237 242 239 236 237 241 244 244 249 252 254 256 254 254 264 266 266 265 261 249 243 245 244 242 233 231 230 224 211 203 198
332 333 341 329 295 272 259 250 239 237 231 219 216 220 222 222 223 221 222 221 217 216 220 219 218 223 228 230 229 228 236 240 245 252 254 251 248 245 242 235 231 228 220 215 207 204 203 204 198 184 171 164 143 132
331 323 316 241 267 274 249 231 228 233 242 243 238 235 233 228 219 214 208 204 197 185 192 205 209 215 220 218 213 223 226 227 230 227 226 220 211 202 194 201 206 204 189 178 176 176 169 156 150 143 133 130 127 125
350 342 340 329 326 300 280 232 194 172 164 182 210 217 222 232 234 227 215 205 194 189 195 200 205 208 204 203 206 204 205 205 201 203 200 181 164 169 183 187 177 167 162 158 150 142 136 131 126 128 128 126 127 127
17 14 358 354 5 320 289 253 196 179 168 168 168 174 181 171 165 202 211 210 206 201 201 202 197 193 195 193 185 186 185 188 185 179 161 153 166 179 173 159 153 149 142 136 132 128 124 127 128 126 127 130 128 130
19 18 12 12 25 16 330 243 150 117 156 178 169 175 168 154 149 147 152 176 182 191 193 187 186 188 185 182 177 176 177 171 160 149 151 165 168 163 156 150 141 135 131 127 122 121 123 123 126 129 131 132 135 138
26 24 16 15 13 18 31 35 124 132 109 98 100 130 158 163 161 152 157 167 172 174 180 183 180 175 173 170 167 166 161 151 144 152 163 158 155 151 143 139 137 131 129 126 127 127 128 129 133 136 138 141 141 139
31 46 39 26 16 14 34 65 88 112 129 127 119 111 106 140 145 141 147 153 158 162 165 163 163 164 163 158 154 151 149 150 157 157 150 149 147 142 140 137 132 132 131 131 131 133 135 139 142 144 147 147 145 142
22 41 51 45 39 42 61 97 115 122 122 116 118 126 130 133 137 145 150 152 153 156 157 158 158 154 152 151 149 150 154 156 156 152 149 148 145 141 136 136 137 137 138 138 141 145 147 149 153 154 154 152 151 148
27 17 41 68 60 50 50 73 96 109 116 113 118 120 121 130 138 143 150 154 157 158 157 154 153 154 152 150 152 154 155 154 153 153 151 148 145 141 144 144 145 147 147 149 154 155 156 159 160 159 158 157 157 156
30 29 35 87 96 90 84 80 93 104 114 118 119 123 130 138 141 145 149 151 154 153 153 154 154 152 153 155 155 155 154 155 156 156 155 150 148 149 151 151 154 157 156 158 163 165 166 166 166 166 166 166 167 166